Tiempo cada hora Barrancas

Hoy, 27 Febrero, Sábado

Tiempo Temperatura Precipitaciones Viento Presión Humedad
00:00 +19°C° 0.5 mm 0 mps 674 mmHg 91%
01:00 +19°C° 0.5 mm 0 mps 674 mmHg 91%
02:00 +19°C° 0.4 mm 0 mps 674 mmHg 91%
03:00 +19°C° 0.4 mm 0 mps 674 mmHg 92%
04:00 +19°C° 0.4 mm 0 mps 674 mmHg 93%
05:00 +19°C° 0.2 mm 0 mps 674 mmHg 93%
06:00 +19°C° 0.2 mm 0 mps 675 mmHg 92%
07:00 +19°C° 0.2 mm 0 mps 675 mmHg 91%
08:00 +19°C° 0.3 mm 0 mps 676 mmHg 90%
09:00 +22°C° 0.3 mm 1 mps 676 mmHg 90%
10:00 +22°C° 0.3 mm 1 mps 676 mmHg 89%
11:00 +23°C° 0.4 mm 1 mps 676 mmHg 86%
12:00 +23°C° 0.4 mm 1 mps 675 mmHg 83%
13:00 +24°C° 0.4 mm 1 mps 675 mmHg 80%
14:00 +24°C° 0.3 mm 1 mps 674 mmHg 78%
15:00 +25°C° 0.3 mm 1 mps 674 mmHg 77%
16:00 +23°C° 0.3 mm 0 mps 673 mmHg 75%
17:00 +22°C° 0.2 mm 0 mps 673 mmHg 80%
18:00 +21°C° 0.2 mm 0 mps 673 mmHg 84%
19:00 +20°C° 0.2 mm 0 mps 673 mmHg 89%
20:00 +20°C° 0.1 mm 0 mps 674 mmHg 89%
21:00 +19°C° 0.1 mm 0 mps 674 mmHg 89%
22:00 +19°C° 0.1 mm 0 mps 675 mmHg 88%
23:00 +19°C° 0.4 mm 0 mps 674 mmHg 89%

Mañana, 28 Febrero, Domingo

Tiempo Temperatura Precipitaciones Viento Presión Humedad
00:00 +19°C° 0.4 mm 0 mps 674 mmHg 90%
01:00 +19°C° 0.4 mm 0 mps 674 mmHg 91%
02:00 +19°C° 0.5 mm 0 mps 674 mmHg 93%
03:00 +18°C° 0.5 mm 0 mps 674 mmHg 94%
04:00 +18°C° 0.5 mm 0 mps 673 mmHg 96%
05:00 +18°C° 0.4 mm 0 mps 674 mmHg 96%
06:00 +18°C° 0.4 mm 0 mps 674 mmHg 96%
07:00 +18°C° 0.4 mm 0 mps 675 mmHg 96%
08:00 +21°C° 0.1 mm 1 mps 675 mmHg 92%
09:00 +21°C° 0.1 mm 1 mps 675 mmHg 89%
10:00 +22°C° 0.1 mm 1 mps 676 mmHg 85%
11:00 +23°C° 0.1 mm 1 mps 675 mmHg 78%
12:00 +25°C° 0.1 mm 1 mps 675 mmHg 72%
13:00 +26°C° 0.1 mm 1 mps 675 mmHg 66%
14:00 +26°C° 0.2 mm 1 mps 674 mmHg 69%
15:00 +25°C° 0.2 mm 1 mps 673 mmHg 72%
16:00 +25°C° 0.2 mm 1 mps 672 mmHg 75%
17:00 +23°C° 0.1 mm 1 mps 672 mmHg 80%
18:00 +22°C° 0.1 mm 1 mps 672 mmHg 86%
19:00 +21°C° 0.1 mm 1 mps 673 mmHg 92%
20:00 +21°C° 0.1 mm 1 mps 673 mmHg 90%
21:00 +21°C° 0.1 mm 1 mps 673 mmHg 89%
22:00 +21°C° 0.1 mm 1 mps 674 mmHg 87%
23:00 +21°C° 0.1 mm 1 mps 674 mmHg 87%

Pasado mañana, 1 Marzo, Lunes

Tiempo Temperatura Precipitaciones Viento Presión Humedad
00:00 +19°C° 0.1 mm 0 mps 673 mmHg 87%
01:00 +19°C° 0.1 mm 0 mps 673 mmHg 87%
02:00 +18°C° 0.2 mm 0 mps 673 mmHg 88%
03:00 +18°C° 0.2 mm 0 mps 673 mmHg 90%
04:00 +18°C° 0.2 mm 0 mps 673 mmHg 92%
05:00 +18°C° 0.2 mm 0 mps 673 mmHg 93%
06:00 +18°C° 0.2 mm 0 mps 674 mmHg 93%
07:00 +18°C° 0.2 mm 0 mps 675 mmHg 94%
08:00 +19°C° 0.2 mm 0 mps 675 mmHg 89%
09:00 +22°C° 0.2 mm 1 mps 675 mmHg 83%
10:00 +24°C° 0.2 mm 1 mps 676 mmHg 78%
11:00 +24°C° 0.2 mm 1 mps 675 mmHg 75%
12:00 +25°C° 0.2 mm 1 mps 675 mmHg 72%
13:00 +25°C° 0.2 mm 1 mps 674 mmHg 70%
14:00 +25°C° 0.2 mm 1 mps 673 mmHg 71%
15:00 +25°C° 0.2 mm 1 mps 673 mmHg 72%
16:00 +25°C° 0.2 mm 1 mps 672 mmHg 73%
17:00 +23°C° 0.2 mm 1 mps 672 mmHg 79%
18:00 +22°C° 0.2 mm 1 mps 673 mmHg 85%
19:00 +21°C° 0.2 mm 1 mps 673 mmHg 91%
20:00 +21°C° 0.1 mm 1 mps 673 mmHg 91%
21:00 +20°C° 0.1 mm 1 mps 674 mmHg 90%
22:00 +20°C° 0.1 mm 1 mps 674 mmHg 90%
23:00 +20°C° 0 mm 1 mps 674 mmHg 88%

2 Marzo, Martes

Tiempo Temperatura Precipitaciones Viento Presión Humedad
00:00 +20°C° 0 mm 1 mps 674 mmHg 87%
01:00 +20°C° 0 mm 1 mps 674 mmHg 86%
02:00 +18°C° 0 mm 0 mps 673 mmHg 86%
03:00 +18°C° 0 mm 0 mps 673 mmHg 86%
04:00 +18°C° 0 mm 0 mps 673 mmHg 86%
05:00 +18°C° 0 mm 0 mps 674 mmHg 86%
06:00 +18°C° 0 mm 0 mps 674 mmHg 85%
07:00 +18°C° 0 mm 0 mps 675 mmHg 85%
08:00 +22°C° 0.1 mm 1 mps 676 mmHg 78%
09:00 +24°C° 0.1 mm 1 mps 676 mmHg 72%
10:00 +25°C° 0.1 mm 1 mps 677 mmHg 65%
11:00 +26°C° 0.1 mm 1 mps 676 mmHg 64%
12:00 +26°C° 0.1 mm 1 mps 676 mmHg 63%
13:00 +27°C° 0.1 mm 1 mps 675 mmHg 62%
14:00 +26°C° 0.3 mm 1 mps 674 mmHg 66%
15:00 +26°C° 0.3 mm 1 mps 674 mmHg 69%
16:00 +25°C° 0.3 mm 1 mps 673 mmHg 73%
17:00 +24°C° 0.2 mm 1 mps 673 mmHg 78%
18:00 +22°C° 0.2 mm 1 mps 674 mmHg 84%
19:00 +21°C° 0.2 mm 1 mps 674 mmHg 89%
20:00 +21°C° 0.1 mm 1 mps 674 mmHg 88%
21:00 +21°C° 0.1 mm 1 mps 675 mmHg 87%
22:00 +21°C° 0.1 mm 1 mps 675 mmHg 86%
23:00 +21°C° 0.1 mm 1 mps 675 mmHg 86%

3 Marzo, Miércoles

Tiempo Temperatura Precipitaciones Viento Presión Humedad
00:00 +19°C° 0.1 mm 0 mps 675 mmHg 86%
01:00 +18°C° 0.1 mm 0 mps 675 mmHg 87%
02:00 +18°C° 0.1 mm 0 mps 675 mmHg 87%
03:00 +17°C° 0.1 mm 0 mps 675 mmHg 88%
04:00 +17°C° 0.1 mm 0 mps 674 mmHg 89%
05:00 +17°C° 0 mm 0 mps 675 mmHg 87%
06:00 +17°C° 0 mm 0 mps 675 mmHg 85%
07:00 +17°C° 0 mm 0 mps 676 mmHg 82%
08:00 +22°C° 0 mm 1 mps 677 mmHg 72%
09:00 +24°C° 0 mm 1 mps 678 mmHg 61%
10:00 +27°C° 0 mm 1 mps 678 mmHg 50%
11:00 +27°C° 0 mm 1 mps 678 mmHg 49%
12:00 +28°C° 0 mm 2 mps 677 mmHg 48%
13:00 +29°C° 0 mm 2 mps 677 mmHg 47%
14:00 +28°C° 0 mm 1 mps 676 mmHg 48%
15:00 +28°C° 0 mm 1 mps 675 mmHg 50%
16:00 +27°C° 0 mm 1 mps 675 mmHg 51%
17:00 +25°C° 0.1 mm 1 mps 675 mmHg 61%
18:00 +23°C° 0.1 mm 1 mps 675 mmHg 71%
19:00 +21°C° 0.1 mm 1 mps 674 mmHg 81%
20:00 +21°C° 0 mm 1 mps 675 mmHg 80%
21:00 +21°C° 0 mm 1 mps 675 mmHg 79%
22:00 +20°C° 0 mm 1 mps 676 mmHg 78%
23:00 +20°C° 0 mm 1 mps 676 mmHg 77%

4 Marzo, Jueves

Tiempo Temperatura Precipitaciones Viento Presión Humedad
00:00 +20°C° 0 mm 1 mps 675 mmHg 76%
01:00 +20°C° 0 mm 1 mps 675 mmHg 75%
02:00 +19°C° 0 mm 1 mps 675 mmHg 74%
03:00 +19°C° 0 mm 1 mps 675 mmHg 74%
04:00 +19°C° 0 mm 1 mps 675 mmHg 74%
05:00 +19°C° 0 mm 1 mps 675 mmHg 71%
06:00 +20°C° 0 mm 1 mps 676 mmHg 69%
07:00 +20°C° 0 mm 1 mps 676 mmHg 67%
08:00 +22°C° 0 mm 1 mps 677 mmHg 61%
09:00 +24°C° 0 mm 1 mps 678 mmHg 54%
10:00 +26°C° 0 mm 2 mps 678 mmHg 47%
11:00 +27°C° 0 mm 2 mps 677 mmHg 46%
12:00 +28°C° 0 mm 2 mps 677 mmHg 45%
13:00 +29°C° 0 mm 2 mps 676 mmHg 43%
14:00 +29°C° 0 mm 2 mps 676 mmHg 45%
15:00 +28°C° 0 mm 2 mps 675 mmHg 47%
16:00 +28°C° 0 mm 1 mps 674 mmHg 49%
17:00 +26°C° 0 mm 1 mps 674 mmHg 57%
18:00 +24°C° 0 mm 1 mps 674 mmHg 66%
19:00 +22°C° 0 mm 1 mps 674 mmHg 75%
20:00 +21°C° 0 mm 1 mps 674 mmHg 75%
21:00 +21°C° 0 mm 1 mps 675 mmHg 75%
22:00 +21°C° 0 mm 1 mps 675 mmHg 75%
23:00 +21°C° 0 mm 1 mps 675 mmHg 74%
Mostrar más

Necesitamos Su Consentimiento

Meteoprog y nuestros Proveedores de Servicios pueden almacenar y acceder a sus datos personales como cookies, identificadores de dispositivo u otras tecnologías similares de su dispositivo y procesar dichos datos para personalizar contenido y anuncios, además de ofrecer funciones de redes sociales y analizar el tráfico.

  • Almacenar y/o acceder a información en su dispositivo

    Se puede almacenar o acceder a cookies, identificadores de dispositivo u otra información de su dispositivo para los fines anteriormente indicados.

  • Anuncios y contenido personalizados, medición de anuncios y contenido, percepciones del público, y desarrollo de productos

    Los anuncios y el contenido pueden personalizarse en base a su perfil. Se pueden añadir más datos para personalizar mejor los anuncios y contenidos. Se puede medir el rendimiento de los anuncios y contenidos. Se puede obtener la percepción sobre el público que ha visto los anuncios y contenidos. Dichos datos pueden usarse para desarrollar o mejorar la experiencia del usuario, sistemas y software.

Al hacer clic en ‘Estoy De Acuerdo’ usted permitirá el uso de las cookies, identificadores de dispositivo, balizas web u otras tecnologías similares indicadas. Su configuración puede cambiarse desde el navegador de su dispositivo.

Para ciertos fines, los intereses legítimos pueden ser considerados por encima del consentimiento. Puede leer más sobre ello en nuestra Política de Privacidad y Cookies.